Weather History for Lamar, CO

Change the Weather History Date:

Friday, March 30, 2012

  Actual Average Record
Temperature  
Mean Temperature 57 °F 47 °F  
Max Temperature 80 °F 64 °F 87 °F (1943)
Min Temperature 33 °F 31 °F 3 °F (1987)
Degree Days  
Heating Degree Days 8 18  
Month to date heating degree days 437 679  
Since 1 July heating degree days 4615 4990  
Cooling Degree Days 0 0  
Month to date cooling degree days 5 0  
Year to date cooling degree days 5 0  
Growing Degree Days 7 (Base 50)    
Moisture  
Dew Point 29 °F    
Average Humidity 46    
Maximum Humidity 82    
Minimum Humidity 10    
Precipitation  
Precipitation 0.00 in 0.03 in 1.42 in (1973)
Month to date precipitation 0.44 0.81  
Year to date precipitation 0.64 1.48  
Snow  
Snow 0.00 in - - ()
Month to date snowfall 0.0  
Snow Depth 0.00 in    
Sea Level Pressure  
Sea Level Pressure 29.78 in    
Wind  
Wind Speed 6 mph (SSW)    
Max Wind Speed 17 mph    
Max Gust Speed 28 mph    
Visibility 10 miles    
Events      
T = Trace of Precipitation, MM = Missing Value Source: NWS Daily Summary

Daily Weather History Graph

Daily Weather History Graph

Search for Another Location

Airport:

Trip Planner

Search our weather history database for the weather conditions in past years. The results will help you decide how hot, cold, wet, or windy it might be!

Date:

Astronomy

Mar. 30, 2012 Rise Set
Actual Time 6:38 AM MDT 7:12 PM MDT
Civil Twilight 6:11 AM MDT 7:39 PM MDT
Nautical Twilight 5:40 AM MDT 8:10 PM MDT
Astronomical Twilight 5:08 AM MDT 8:42 PM MDT
Moon 11:50 AM MDT (3/30) 1:46 AM MDT (3/30)
Length of Visible Light 13h 27m
Length of Day
12h 34m
Waxing Crescent, 49% of the Moon is Illuminated
Mar 30
Waxing Crescent
Mar 30
First Quarter
Apr 6
Full
Apr 13
Last Quarter
Apr 21
New

Hourly Weather History & Observations

Time (MDT) Temp. Windchill Dew Point Humidity Pressure Visibility Wind Dir Wind Speed Gust Speed Precip Events Conditions
12:53 AM 39.0 °F - 28.9 °F 67% 29.81 in 10.0 mi Calm Calm - N/A   Clear
1:53 AM 39.9 °F - 28.9 °F 65% 29.81 in 10.0 mi Calm Calm - N/A   Clear
2:53 AM 41.0 °F - 30.0 °F 65% 29.81 in 10.0 mi Calm Calm - N/A   Clear
4:53 AM 36.0 °F 33.3 °F 30.0 °F 79% 29.81 in 10.0 mi SSW 3.5 mph - N/A   Clear
5:53 AM 34.0 °F 29.8 °F 28.9 °F 82% 29.83 in 10.0 mi WNW 4.6 mph - N/A   Clear
6:53 AM 34.0 °F 31.0 °F 28.9 °F 82% 29.83 in 10.0 mi SW 3.5 mph - N/A   Clear
7:53 AM 42.1 °F - 32.0 °F 67% 29.87 in 10.0 mi Calm Calm - N/A   Clear
8:53 AM 50.0 °F - 32.0 °F 50% 29.86 in 10.0 mi Calm Calm - N/A   Clear
9:53 AM 59.0 °F - 32.0 °F 36% 29.85 in 10.0 mi Calm Calm - N/A   Clear
10:53 AM 64.9 °F - 30.9 °F 28% 29.84 in 10.0 mi WSW 9.2 mph - N/A   Unknown
12:53 PM 75.0 °F - 28.9 °F 18% 29.78 in 10.0 mi WNW 10.4 mph - N/A   Clear
1:53 PM 77.0 °F - 24.1 °F 14% 29.75 in 10.0 mi Calm Calm - N/A   Clear
2:53 PM 80.1 °F - 24.1 °F 13% 29.72 in 10.0 mi Variable 3.5 mph - N/A   Clear
3:53 PM 80.1 °F - 19.9 °F 11% 29.72 in 10.0 mi SW 6.9 mph - N/A   Clear
4:53 PM 79.0 °F - 18.0 °F 10% 29.71 in 10.0 mi Calm Calm - N/A   Clear
5:53 PM 78.1 °F - 17.1 °F 10% 29.72 in 10.0 mi Calm Calm - N/A   Clear
6:53 PM 75.0 °F - 23.0 °F 14% 29.74 in 10.0 mi Calm Calm - N/A   Clear
7:53 PM 64.9 °F - 26.1 °F 23% 29.75 in 10.0 mi SE 12.7 mph - N/A   Clear
8:53 PM 64.9 °F - 26.1 °F 23% 29.74 in 10.0 mi SSE 12.7 mph - N/A   Clear
9:53 PM 62.1 °F - 30.9 °F 31% 29.74 in 10.0 mi SSE 13.8 mph - N/A   Clear
10:53 PM 61.0 °F - 45.0 °F 56% 29.73 in 10.0 mi SSE 16.1 mph - N/A   Clear
11:53 PM 60.1 °F - 46.9 °F 62% 29.72 in 10.0 mi South 15.0 mph - N/A   Clear